www.pogodaiklimat.ru

Погода и климат >> Архив погоды >> Бразилия >> Санта-Катарина >> Жоасаба


ПОГОДА в Жоасабе

  • Прогноз погоды в Жоасабе
  • Монитор погоды в Жоасабе

АРХИВ ПОГОДЫ в Жоасабе

Время (UTC), дата Ветер
(напр.,м/с)
 
Видим.   Явления Облачность Т
(С)
Тd
(С)
f
(%)
Тe
(С)
Тes
(С)
Комфортность P
(гПа)
Po
(гПа)
Тmin
(С)
Tmax
(С)
R
(мм)
R24
(мм)
S
(см)
22 12.09 штиль 0 н/о н/о +13.9 +13.6 98 +13 +13 1019.3 930.3 0.2
23 12.09 штиль 0 н/о н/о +13.9 +13.6 98 +13 +13 1019.7 930.6
00 13.09 штиль 0 н/о н/о +14.0 +13.7 98 +14 +14 1020.3 931.2
01 13.09 штиль 0 н/о н/о +13.9 +13.7 99 +13 +13 1020.5 931.4 0.2
02 13.09 штиль 0 н/о н/о +13.9 +13.7 99 +13 +13 1020.5 931.4
03 13.09 штиль 0 н/о н/о +14.0 +13.8 99 +14 +14 1020.5 931.4
04 13.09 штиль 0 н/о н/о +14.0 +13.8 99 +14 +14 1019.9 930.8
05 13.09 штиль 0 н/о н/о +14.0 +13.8 99 +14 +14 1019.7 930.7
06 13.09 штиль 0 н/о н/о +14.0 +13.8 99 +14 +14 1019.2 930.2
07 13.09 штиль 0 н/о н/о +13.9 +13.7 99 +13 +13 1019.2 930.2
08 13.09 штиль 0 н/о н/о +13.4 +13.2 99 +13 +13 1019.6 930.4
09 13.09 штиль 0 н/о н/о +12.9 +12.7 99 +12 +12 1020.2 930.8
10 13.09 штиль 0 н/о н/о +12.7 +12.5 99 +12 +12 1021.2 931.6
11 13.09 штиль 0 н/о н/о +13.0 +12.7 98 +12 +12 1021.7 932.2
12 13.09 штиль 0 н/о н/о +13.6 +13.2 97 +13 +13 1021.8 932.5
13 13.09 штиль 0 н/о н/о +14.3 +13.3 94 +14 +14 1021.8 932.7
21 14.09 штиль 0 н/о н/о +19.2 +15.0 77 +21 +21 комфорт 1015.0 927.9
22 14.09 штиль 0 н/о н/о +18.8 +14.9 78 +20 +20 1015.6 928.3
23 14.09 штиль 0 н/о н/о +18.0 +14.6 81 +18 +18 1016.3 928.7
00 15.09 штиль 0 н/о н/о +17.2 +14.4 84 +17 +17 1017.0 929.1
01 15.09 штиль 0 н/о н/о +17.0 +14.2 84 +17 +17 1017.1 929.2
02 15.09 штиль 0 н/о н/о +16.7 +14.2 85 +17 +17 1016.9 928.9
03 15.09 штиль 0 н/о н/о +16.4 +14.1 86 +16 +16 1016.8 928.7
04 15.09 штиль 0 н/о н/о +16.3 +14.2 87 +16 +16 1016.1 928.0
05 15.09 штиль 0 н/о н/о +16.4 +14.4 88 +16 +16 1015.6 927.6
06 15.09 штиль 0 н/о н/о +16.5 +14.5 88 +16 +16 1014.8 926.9
07 15.09 штиль 0 н/о н/о +16.4 +14.5 89 +16 +16 1014.6 926.7
08 15.09 штиль 0 н/о н/о +16.2 +14.4 89 +16 +16 1014.8 926.8
09 15.09 штиль 0 н/о н/о +16.0 +14.2 89 +16 +16 1015.2 927.1
10 15.09 штиль 0 н/о н/о +16.1 +14.2 88 +16 +16 1015.9 927.8
11 15.09 штиль 0 н/о н/о +17.5 +15.1 86 +17 +17 1016.0 928.3
12 15.09 штиль 0 н/о н/о +18.9 +15.1 79 +20 +20 1015.7 928.4
13 15.09 штиль 0 н/о н/о +21.5 +15.8 70 +25 +25 комфорт 1014.5 928.1
14 15.09 штиль 0 н/о н/о +24.6 +17.0 63 +28 +28 душно 1012.9 927.5
15 15.09 штиль 0 н/о н/о +27.6 +17.1 53 +32 +32 очень
душно
1011.5 927.0
16 15.09 штиль 0 н/о н/о +30.2 +16.7 44 +34 +34 очень
душно
1009.8 926.1
17 15.09 штиль 0 н/о н/о +31.9 +11.2 28 +32 +32 жарко 1008.3 925.2
18 15.09 штиль 0 н/о н/о +35.6 +13.3 26 +36 +36 очень
жарко
1006.5 924.5
19 15.09 штиль 0 н/о н/о +33.7 +12.1 27 +34 +34 очень
жарко
1006.8 924.3
20 15.09 штиль 0 н/о н/о +32.2 +12.4 30 +33 +33 жарко 1007.6 924.6
21 15.09 штиль 0 н/о н/о +29.6 +13.9 38 +31 +31 жарко 1008.6 924.9
22 15.09 штиль 0 н/о н/о +27.7 +14.5 44 +30 +30 жарко 1009.6 925.3
23 15.09 штиль 0 н/о н/о +26.0 +15.6 53 +29 +29 душно 1010.9 926.0
00 16.09 штиль 0 н/о н/о +25.0 +16.5 59 +28 +28 жарко 1011.6 926.4
01 16.09 штиль 0 н/о н/о +23.9 +16.6 64 +27 +27 жарко 1012.1 926.5
02 16.09 штиль 0 н/о н/о +23.1 +16.5 66 +28 +28 душно 1012.2 926.4
03 16.09 штиль 0 н/о н/о +22.4 +16.3 68 +27 +27 душно 1012.3 926.3
04 16.09 штиль 0 н/о н/о +21.8 +16.0 70 +26 +26 душно 1012.1 926.0
05 16.09 штиль 0 н/о н/о +21.8 +16.1 70 +26 +26 душно 1011.7 925.6
06 16.09 штиль 0 н/о н/о +21.4 +16.2 72 +25 +25 комфорт 1011.6 925.4
07 16.09 штиль 0 н/о н/о +20.8 +16.2 75 +24 +24 комфорт 1011.4 925.0
08 16.09 штиль 0 н/о н/о +20.5 +16.1 76 +23 +23 комфорт 1011.7 925.2
09 16.09 штиль 0 н/о н/о +20.2 +15.8 76 +23 +23 комфорт 1012.0 925.4
10 16.09 штиль 0 н/о н/о +20.8 +15.8 73 +24 +24 комфорт 1012.3 925.9
11 16.09 штиль 0 н/о н/о +22.1 +16.1 69 +26 +26 душно 1012.8 926.7
12 16.09 штиль 0 н/о н/о +23.1 +16.5 66 +28 +28 душно 1013.2 927.3
13 16.09 штиль 0 н/о н/о +30.0 +14.4 39 +32 +32 жарко 1010.8 927.0
14 16.09 штиль 0 н/о н/о +32.1 +11.7 29 +32 +32 жарко 1009.7 926.5
15 16.09 штиль 0 н/о н/о +33.6 +12.1 27 +34 +34 очень
жарко
1008.9 926.2
16 16.09 штиль 0 н/о н/о +34.8 +11.6 25 +35 +35 очень
жарко
1008.1 925.8
17 16.09 штиль 0 н/о н/о +34.5 +10.6 23 +34 +34 очень
жарко
1007.3 925.0
18 16.09 штиль 0 н/о н/о +34.6 +9.8 22 +34 +34 очень
жарко
1006.7 924.4
20 16.09 штиль 0 н/о н/о +32.2 +10.3 26 +32 +32 жарко 1007.1 924.2
21 16.09 штиль 0 н/о н/о +30.1 +10.1 29 +30 +30 жарко 1008.2 924.6
22 16.09 штиль 0 н/о н/о +27.0 +11.5 38 +28 +28 жарко 1009.3 924.8
23 16.09 штиль 0 н/о н/о +25.2 +11.7 43 +27 +27 жарко 1010.0 925.0
00 17.09 штиль 0 н/о н/о +26.9 +10.8 37 +28 +28 жарко 1009.7 925.2
01 17.09 штиль 0 н/о н/о +26.9 +10.2 35 +27 +27 жарко 1009.5 925.0
02 17.09 штиль 0 н/о н/о +25.8 +11.4 41 +27 +27 жарко 1010.0 925.1
03 17.09 штиль 0 н/о н/о +26.2 +11.0 39 +27 +27 жарко 1009.8 925.1
04 17.09 штиль 0 н/о н/о +22.0 +12.8 56 +25 +25 комфорт 1011.0 925.0
05 17.09 штиль 0 н/о н/о +22.2 +12.3 53 +25 +25 комфорт 1010.5 924.6
07 17.09 штиль 0 н/о н/о +19.9 +12.3 62 +21 +21 комфорт 1010.1 923.6
08 17.09 штиль 0 н/о н/о +20.4 +11.8 58 +22 +22 комфорт 1009.7 923.4
09 17.09 штиль 0 н/о н/о +20.9 +11.4 55 +23 +23 комфорт 1009.5 923.3
10 17.09 штиль 0 н/о н/о +19.0 +13.4 70 +20 +20 1009.9 923.2
11 17.09 штиль 0 н/о н/о +19.8 +13.7 68 +21 +21 комфорт 1011.2 924.6
12 17.09 штиль 0 н/о н/о +18.6 +16.0 85 +19 +19 1013.0 925.9
13 17.09 штиль 0 н/о н/о +21.3 +16.9 76 +25 +25 комфорт 1010.9 924.7
14 17.09 штиль 0 н/о н/о +23.6 +16.1 63 +27 +27 жарко 1008.7 923.3
15 17.09 штиль 0 н/о н/о +26.2 +16.2 54 +30 +30 душно 1006.4 921.9
16 17.09 штиль 0 н/о н/о +29.2 +16.4 46 +33 +33 очень
душно
1004.8 921.3
17 17.09 штиль 0 н/о н/о +27.8 +16.2 49 +31 +31 душно 1003.9 920.1
18 17.09 штиль 0 н/о н/о +30.2 +17.2 46 +34 +34 очень
душно
1002.6 919.5
19 17.09 штиль 0 н/о н/о +28.7 +17.8 52 +33 +33 очень
душно
1002.6 919.1
20 17.09 штиль 0 н/о н/о +27.8 +18.1 56 +33 +33 очень
душно
1002.4 918.7
21 17.09 штиль 0 н/о н/о +27.0 +15.7 50 +30 +30 душно 1003.0 919.0
22 17.09 штиль 0 н/о н/о +23.9 +17.5 67 +28 +28 душно 1004.6 919.7
23 17.09 штиль 0 н/о н/о +22.7 +17.5 72 +28 +28 душно 1005.6 920.3
00 18.09 штиль 0 н/о н/о +21.7 +18.0 79 +26 +26 душно 1006.5 920.8
01 18.09 штиль 0 н/о н/о +20.0 +18.0 88 +23 +23 комфорт 1007.3 921.1
02 18.09 штиль 0 н/о н/о +19.4 +18.0 92 +21 +21 комфорт 1007.4 921.0 0.2
03 18.09 штиль 0 н/о н/о +18.7 +17.9 95 +20 +20 1008.0 921.3
04 18.09 штиль 0 н/о н/о +19.0 +18.0 94 +21 +21 комфорт 1007.4 920.9
05 18.09 штиль 0 н/о н/о +18.1 +17.6 97 +18 +18 1007.8 921.0
06 18.09 штиль 0 н/о н/о +18.0 +17.7 98 +18 +18 1006.0 919.3 0.4
07 18.09 штиль 0 н/о н/о +17.9 +17.6 98 +18 +18 1006.0 919.3
08 18.09 штиль 0 н/о н/о +17.7 +17.4 98 +18 +18 1006.5 919.7
09 18.09 штиль 0 н/о н/о +17.6 +17.3 98 +18 +18 1007.5 920.6
10 18.09 штиль 0 н/о н/о +17.7 +17.5 99 +18 +18 1009.0 922.0
11 18.09 штиль 0 н/о н/о +15.3 +15.0 98 +15 +15 1010.9 923.0 1
12 18.09 штиль 0 н/о н/о +15.3 +14.9 97 +15 +15 1011.7 923.7
13 18.09 штиль 0 н/о н/о +15.5 +15.0 97 +15 +15 1012.4 924.4
14 18.09 штиль 0 н/о н/о +16.8 +15.0 89 +17 +17 1011.8 924.3
15 18.09 штиль 0 н/о н/о +17.4 +15.2 87 +17 +17 1010.3 923.1
16 18.09 штиль 0 н/о н/о +16.4 +15.6 95 +16 +16 1010.4 922.9 2
17 18.09 штиль 0 н/о н/о +16.6 +15.7 94 +16 +16 1011.2 923.7 0.6
18 18.09 штиль 0 н/о н/о +15.9 +15.2 96 +16 +16 1010.4 922.7 1
19 18.09 штиль 0 н/о н/о +15.6 +14.8 95 +15 +15 1008.6 921.0 0.4
20 18.09 штиль 0 н/о н/о +15.7 +13.7 88 +15 +15 1007.6 920.1
21 18.09 штиль 0 н/о н/о +15.8 +13.6 87 +16 +16 1007.6 920.1
22 18.09 штиль 0 н/о н/о +14.7 +13.6 93 +14 +14 1010.1 922.1
23 18.09 штиль 0 н/о н/о +14.9 +14.0 94 +15 +15 1010.3 922.3
00 19.09 штиль 0 н/о н/о +14.9 +14.0 94 +15 +15 1010.8 922.8
01 19.09 штиль 0 н/о н/о +15.0 +14.2 95 +15 +15 1010.7 922.7
02 19.09 штиль 0 н/о н/о +15.0 +14.2 95 +15 +15 1010.2 922.3
03 19.09 штиль 0 н/о н/о +14.7 +14.3 97 +14 +14 1009.9 921.9
04 19.09 штиль 0 н/о н/о +14.1 +13.8 98 +14 +14 1009.7 921.6
05 19.09 штиль 0 н/о н/о +14.2 +13.7 97 +14 +14 1008.8 920.8 0.2
06 19.09 штиль 0 н/о н/о +13.9 +13.5 97 +13 +13 1008.4 920.3
07 19.09 штиль 0 н/о н/о +14.0 +13.5 97 +14 +14 1007.7 919.7
09 19.09 штиль 0 н/о н/о +13.9 +13.6 98 +13 +13 1008.4 920.3
10 19.09 штиль 0 н/о н/о +14.8 +14.2 96 +14 +14 1008.6 920.8
11 19.09 штиль 0 н/о н/о +16.5 +15.2 92 +16 +16 1008.3 921.0
12 19.09 штиль 0 н/о н/о +18.3 +15.9 86 +19 +19 1007.6 920.9
13 19.09 штиль 0 н/о н/о +20.7 +16.8 78 +24 +24 комфорт 1006.7 920.7
14 19.09 штиль 0 н/о н/о +22.1 +17.2 74 +27 +27 душно 1005.9 920.4
15 19.09 штиль 0 н/о н/о +24.0 +17.6 67 +28 +28 душно 1004.2 919.3
16 19.09 штиль 0 н/о н/о +24.2 +17.1 65 +28 +28 душно 1003.7 918.9
17 19.09 штиль 0 н/о н/о +19.2 +17.9 92 +21 +21 комфорт 1004.3 918.1 2
18 19.09 штиль 0 н/о н/о +18.9 +18.0 95 +20 +20 1004.6 918.3 2
19 19.09 штиль 0 н/о н/о +18.5 +18.0 97 +19 +19 1004.9 918.4 2
20 19.09 штиль 0 н/о н/о +17.9 +17.4 97 +18 +18 1006.2 919.5 5
21 19.09 штиль 0 н/о н/о +18.0 +17.3 96 +18 +18 1006.3 919.6 2
22 19.09 штиль 0 н/о н/о +17.4 +17.1 98 +17 +17 1006.6 919.7 6
23 19.09 штиль 0 н/о н/о +17.3 +17.1 99 +17 +17 1007.1 920.1 0.6

 

Местоположение метеостанции Жоасаба (Санта-Катарина, Бразилия): широта -27.17 долгота -51.56 высота над уровнем моря 778 м.

В архиве по умолчанию представлена погода в Жоасабе за последнюю неделю. Архивные данные за месяц целиком и за предыдущие месяцы, начиная с января 2011 года, Вы можете получить, выбрав интересующий диапазон дат из раскрывающегося списка и нажав кнопку "Ввод!".


*Определитесь, кто Вы:
робот инопланетянин человек

Внимание! Время в таблицах - всемирное. Для получения местного времени необходимо прибавить поправку, которая равна -3 ч.

Смотрите также архив погоды в соседних городах и на ближайших метеорологических станциях:

Погода в Кампос-Новосе (Санта-Катарина, Бразилия) (44 км)
Погода в Касадоре (Санта-Катарина, Бразилия) (82 км)
Погода в Шаншере (Санта-Катарина, Бразилия) (87 км)
Погода в Женерал-Карнейру (Парана, Бразилия) (88 км)
Погода в Эрешине (Риу-Гранди-ду-Сул, Бразилия) (92 км)
Погода в Куритибанусе (Санта-Катарина, Бразилия) (96 км)
Погода в Клевеландии (Парана, Бразилия) (115 км)
Погода в Лагоа Вермельха (Риу-Гранди-ду-Сул, Бразилия) (117 км)
Погода в Лажисе (Санта-Катарина, Бразилия) (139 км)
Погода в Рио-ду-Кампо (Санта-Катарина, Бразилия) (142 км)

Пояснения к столбцам:

Ветер - указаны скорость ветра в м/с - средняя за 10 мин, порывы в срок и между сроками (в фигурных скобках) и направление, откуда дует ветер: С - северный, СВ - северо-восточный, В - восточный, ЮВ - юго-восточный, Ю - южный, ЮЗ - юго-западный, З - западный, СЗ - северо-западный.
Видимость - горизонтальная дальность видимости в метрах или километрах. При видимости от 1 до 10 км при отсутствии осадков обычно наблюдается дымка, при ухудшении видимости до 1 км и менее - туман. В сухую погоду видимость может ухудшаться дымом, пылью или мглою.
Явления - указаны атмосферные явления, наблюдавшиеся в срок или в последний час перед сроком; фигурными скобками обозначены явления, наблюдавшиеся между сроками (за 1-3 часа до срока); квадратными скобками обозначены град или гололедные отложения с указанием их диаметра в мм.
Облачность - указаны через наклонную черту общая и нижняя облачность в баллах и высота нижней границы облаков в метрах; квадратными скобками обозначены формы облаков: Ci - перистые, Cs - перисто-слоистые, Cc - перисто-кучевые, Ac - высококучевые, As - высокослоистые, Sc - слоисто-кучевые, Ns - слоисто-дождевые, Cu - кучевые, Cb - кучево-дождевые. Подробнее классификацию облаков см. в Атласе облаков (PDF).
T - Температура воздуха - температура, измеренная на высоте 2 м над землей.
Td - Температура точки росы - температура, при понижении до которой содержащийся в воздухе водяной пар достигнет насыщения.
f - Относительная влажность воздуха - влажноcть воздуха, измеренная на высоте 2 м над землей.
Te - Эффективная температура - температура, которую ощущает одетый по сезону человек в тени. Характеристика душности погоды. При расчете учитывается влияние влажности воздуха и скорости ветра на теплоощущения человека.
Tes - Эффективная температура на солнце - температура, которую ощущает человек, с поправкой на солнечный нагрев. Характеристика знойности погоды. Зависит от высоты солнца над горизонтом, облачности и скорости ветра. Ночью, в пасмурную погоду, а также при ветре 12 м/с и более поправка равна нулю.
P - Атмосферное давление - приведенное к уровню моря атмосферное давление.
Po - Атмосферное давление - измеренное на уровне метеостанции атмосферное давление.
Tmin - Минимальная температура - минимум температуры воздуха на высоте 2 м над землей.
Tmax - Максимальная температура - максимум температуры воздуха на высоте 2 м над землей.
R - Количество осадков - Количество выпавших осадков за период времени, мм. При наведении курсора мыши на число - период времени, за который выпало указанное количество осадков.
R24 - Количество осадков - Количество выпавших осадков за 24 часа, мм.
S - Снежный покров - Высота снежного покрова, см. При наведении курсора мыши на число - состояние снежного покрова и степень покрытия местности в баллах.